This demonstration page uses our WeatherBlox Daily Observations layout. Learn more.

Left ArrowRight Arrow

Hourly Observations for June 25, 2017

Temp ( °F °C ) Dew Point ( °F °C ) Humidity (%) Winds ( mph kmh ) Pressure ( in mb ) Visibility ( mi km ) Precip ( " mm )
12:53 am 00:53 Clear 46 7.8 39 3.9 77 77 S 6 9 30.30 1026 10 16 0.00 0.00
1:53 am 01:53 Clear 45 7.2 39 3.9 80 80 Calm 30.31 1026 10 16 0.00 0.00
2:53 am 02:53 Clear 44 6.7 39 3.9 83 83 WNW 3 6 30.31 1026 10 16 0.00 0.00
3:53 am 03:53 Clear 42 5.6 38 3.3 85 85 SW 3 6 30.29 1026 10 16 0.00 0.00
4:53 am 04:53 Clear 40 4.4 37 2.8 89 89 Calm 30.30 1026 10 16 0.00 0.00
5:53 am 05:53 Sunny 41 5 37 2.8 86 86 Calm 30.30 1026 10 16 0.00 0.00
6:53 am 06:53 Sunny 47 8.3 41 5 80 80 Calm 30.29 1026 10 16 0.00 0.00
7:53 am 07:53 Sunny 55 12.8 42 5.6 62 62 Calm 30.29 1026 10 16 0.00 0.00
8:53 am 08:53 Sunny 61 16.1 42 5.6 50 50 Calm 30.28 1026 10 16 0.00 0.00
9:53 am 09:53 Sunny 68 20 42 5.6 39 39 E 3 6 30.27 1025 10 16 0.00 0.00
10:53 am 10:53 Sunny 71 21.7 39 3.9 31 31 S 5 7 30.27 1025 10 16 0.00 0.00
11:53 am 11:53 Sunny 73 22.8 37 2.8 27 27 S 8 13 30.26 1025 10 16 0.00 0.00
12:53 pm 12:53 Sunny 75 23.9 35 1.7 23 23 VRB 3 6 30.24 1024 10 16 0.00 0.00
1:53 pm 13:53 Sunny 77 25 35 1.7 22 22 VRB 5 7 30.23 1024 10 16 0.00 0.00
2:53 pm 14:53 Sunny 79 26.1 35 1.7 20 20 SE 9 15 30.21 1023 10 16 0.00 0.00
3:53 pm 15:53 Sunny 79 26.1 35 1.7 20 20 SSE 6 9 30.19 1022 10 16 0.00 0.00
4:53 pm 16:53 Sunny 81 27.2 35 1.7 19 19 Calm 30.18 1022 10 16 0.00 0.00
5:53 pm 17:53 Sunny 80 26.7 35 1.7 20 20 E 6 9 30.16 1022 10 16 0.00 0.00
6:53 pm 18:53 Sunny 80 26.7 35 1.7 20 20 Calm 30.14 1021 10 16 0.00 0.00
7:53 pm 19:53 Sunny 79 26.1 37 2.8 22 22 E 3 6 30.12 1020 10 16 0.00 0.00
8:53 pm 20:53 Sunny 72 22.2 40 4.4 31 31 E 8 13 30.11 1020 10 16 0.00 0.00
9:53 pm 21:53 Clear 64 17.8 44 6.7 48 48 ESE 8 13 30.11 1020 10 16 0.00 0.00
10:53 pm 22:53 Clear 61 16.1 42 5.6 50 50 ESE 6 9 30.11 1020 10 16 0.00 0.00
11:53 pm 23:53 Clear 60 15.6 42 5.6 52 52 E 5 7 30.09 1019 10 16 0.00 0.00

Powered by AerisWeather